Wind_Speed
21 21 20 20 20 19 19 19 18 17 17 18 16 14 14 13 11 12 12 11 10 10 10 10 9 9 8 8 7 7 6 7 6 4 3 3 4 3 3 5 5 5
21 20 20 20 19 19 19 18 18 16 17 17 16 13 13 13 13 13 13 12 11 11 11 10 10 10 10 9 9 8 7 8 6 5 4 4 4 4 4 5 5 6
21 20 19 19 19 20 19 18 17 16 15 15 15 13 13 14 14 14 13 13 12 11 11 9 9 10 10 10 9 8 8 8 7 6 6 5 5 5 6 6 6 5
21 21 20 19 20 20 19 18 17 16 15 15 14 13 13 14 14 14 14 13 12 11 10 9 8 9 10 11 10 8 7 7 6 5 6 5 5 6 7 8 7 6
22 21 20 19 19 20 19 18 17 15 16 16 14 13 13 14 14 14 13 13 12 12 11 9 9 9 8 9 10 9 8 8 7 6 6 6 7 8 8 7 6 6
22 22 21 19 19 20 20 18 17 16 16 16 15 14 14 15 15 14 13 13 12 12 11 10 10 9 9 9 9 9 9 9 8 7 7 8 7 8 7 6 6 7
22 22 21 20 20 20 20 18 17 17 16 15 14 15 15 15 15 14 13 13 12 12 12 11 10 10 10 10 10 11 10 10 9 8 8 8 8 8 8 7 7 7
23 22 21 21 20 20 19 17 17 17 16 16 15 15 15 16 15 14 13 13 13 12 12 11 11 11 11 11 10 11 11 10 10 9 9 9 9 9 8 7 8 8
23 22 21 20 21 21 20 19 18 18 17 18 17 16 16 16 16 15 14 14 13 13 12 12 12 12 11 11 11 11 12 11 10 10 10 10 10 9 9 8 8 9
23 22 22 21 21 22 21 20 19 19 19 20 19 18 18 18 18 16 15 15 15 14 14 13 14 14 13 13 13 12 11 11 11 11 11 11 10 9 9 9 10 11
25 24 23 22 22 21 20 20 19 18 18 19 19 19 19 19 19 18 17 17 17 17 16 16 15 15 14 14 13 12 12 12 12 11 12 12 12 11 10 11 11 11
25 25 25 23 23 21 19 18 18 17 17 18 18 18 18 19 19 19 19 19 19 18 18 18 16 15 15 15 14 13 12 13 13 13 12 12 12 12 12 12 11 10
25 25 25 23 23 22 19 18 19 18 18 19 20 20 20 19 19 20 20 20 20 19 19 20 18 17 16 15 14 13 13 13 14 14 14 12 11 12 13 13 12 11
24 24 24 23 22 22 21 20 19 17 16 15 15 17 19 21 21 21 21 22 22 21 20 21 20 18 17 16 15 15 15 15 14 14 14 13 12 14 14 12 12 12
21 21 21 21 22 21 21 21 19 16 14 13 11 11 12 15 18 19 21 24 25 23 21 22 21 20 18 18 18 18 17 16 16 15 14 13 12 12 11 11 12 13
18 17 16 18 20 20 20 20 19 17 15 13 12 11 9 8 9 11 15 20 24 25 23 22 21 20 19 19 18 18 18 17 17 16 15 14 13 11 9 8 10 10
15 14 13 14 16 17 17 18 18 19 17 15 13 13 12 10 8 7 9 12 17 22 22 22 21 20 20 19 18 17 18 18 18 18 17 15 13 11 9 7 5 6
13 12 12 13 13 13 14 14 14 16 17 17 14 13 12 12 11 9 9 9 11 16 19 21 21 20 19 19 18 18 18 17 18 19 18 16 14 11 10 8 6 5
11 12 13 13 13 12 12 12 11 10 11 12 12 11 11 11 10 9 9 9 10 12 15 17 19 19 19 18 18 18 18 17 16 18 20 18 16 14 13 10 9 7
10 12 12 13 13 13 13 13 12 11 10 10 10 10 10 9 8 8 8 9 10 11 12 14 16 18 18 16 15 15 15 15 14 16 18 18 16 15 14 12 11 9
11 13 13 12 13 13 12 12 12 12 11 12 12 12 11 10 8 8 8 10 11 12 12 14 14 15 14 13 13 12 11 13 14 15 16 16 15 14 12 11 10 10
10 12 12 12 13 13 12 11 10 10 10 11 12 13 13 12 11 10 10 11 12 13 13 13 13 12 11 12 12 12 11 13 15 16 16 15 15 13 11 10 9 10
8 9 9 10 10 10 9 8 8 10 11 11 12 13 15 15 14 13 11 11 12 15 16 16 15 15 17 18 16 14 13 14 15 16 16 15 13 11 9 9 8 9
6 6 6 6 6 6 6 6 6 8 9 11 11 12 13 12 12 11 12 15 17 19 19 20 19 20 23 25 22 19 17 16 15 15 15 14 13 11 9 8 7 7
6 6 6 6 6 5 4 4 4 4 5 6 7 7 8 8 8 10 14 19 21 19 17 17 17 17 19 22 22 22 20 18 16 15 14 14 13 12 10 8 6 5
7 7 6 6 5 5 6 6 4 4 3 1 0 2 4 4 5 9 12 13 13 12 11 11 11 10 12 14 18 20 20 19 19 18 17 15 14 12 11 9 7 6
Wind_Direction
196 198 195 191 192 196 195 193 197 201 203 206 210 214 213 214 215 213 216 221 220 216 215 215 220 228 233 233 228 222 227 238 240 240 259 280 292 299 314 326 331 329
197 200 198 195 194 198 200 200 203 206 206 208 212 215 215 215 218 218 219 222 223 221 222 223 225 230 233 233 228 225 232 243 246 246 256 271 284 293 301 303 314 328
199 199 197 196 197 201 204 203 205 211 212 211 212 213 213 213 217 220 220 221 226 227 223 225 230 229 224 220 223 231 238 245 248 247 253 268 281 282 283 285 297 317
200 200 199 199 200 202 203 202 204 211 214 214 213 212 211 212 216 220 221 221 228 230 225 228 234 229 219 216 222 234 239 240 241 242 252 263 270 274 277 279 286 302
202 202 202 202 202 201 200 201 204 209 212 214 213 213 214 214 214 217 218 218 223 226 226 231 236 231 224 223 226 231 237 244 243 246 260 264 263 270 276 278 286 304
204 205 206 205 203 201 202 206 209 212 215 213 212 215 218 215 214 216 218 217 219 222 224 231 237 234 230 234 237 236 243 251 246 248 263 267 268 270 269 270 284 302
206 207 208 207 204 204 207 211 214 216 217 213 212 217 217 214 215 220 222 223 223 225 227 233 237 236 236 243 248 248 250 253 248 250 262 268 272 272 264 264 274 286
208 207 207 207 206 207 211 213 215 216 216 214 217 219 217 215 217 222 226 226 226 229 230 233 237 239 239 241 246 249 249 251 249 252 260 267 272 273 268 262 265 272
209 208 209 210 209 209 212 215 216 215 214 217 222 225 223 221 221 223 224 222 222 225 228 231 236 241 242 242 243 246 248 251 252 251 257 267 274 275 272 265 264 272
209 208 209 212 212 211 215 220 221 218 217 220 225 229 231 230 227 225 222 219 219 222 225 230 237 240 242 243 242 244 248 251 254 254 256 263 271 276 275 270 270 273
209 209 209 211 213 215 219 223 223 221 222 223 227 232 234 232 229 225 223 222 223 226 226 228 234 238 239 239 239 243 248 251 255 258 257 260 264 267 269 268 271 277
210 210 209 211 214 216 220 221 219 222 229 230 230 233 232 229 229 228 225 224 226 228 227 227 229 231 230 233 236 240 245 251 256 258 258 259 260 260 262 262 264 271
208 208 209 212 214 215 216 217 219 226 234 235 234 233 230 228 232 231 227 226 226 226 226 227 227 225 224 228 234 236 242 250 256 258 256 254 255 259 261 261 262 262
201 205 209 212 213 214 216 219 222 226 230 229 227 228 229 232 236 235 230 229 228 227 228 229 227 225 225 229 233 234 239 246 251 256 255 249 252 260 263 265 267 265
196 202 207 210 211 214 218 223 227 228 225 223 223 224 228 232 237 239 236 232 229 229 230 228 225 224 226 230 233 233 235 240 245 250 251 245 245 255 264 267 266 264
190 196 202 209 212 214 219 224 228 229 227 231 235 238 240 237 235 233 231 231 231 229 228 225 223 225 228 232 234 234 236 239 241 246 249 246 243 249 258 259 257 256
186 190 195 203 208 213 218 221 224 226 229 235 237 241 247 250 250 240 223 223 227 227 226 225 224 226 230 235 238 239 239 240 241 244 247 242 238 240 244 242 244 244
199 203 205 205 203 204 205 206 208 215 224 231 235 238 243 245 250 254 243 229 223 221 222 221 222 226 230 235 240 240 241 244 245 244 240 232 227 228 229 227 226 228
213 222 227 224 217 210 207 205 206 209 216 224 227 231 235 239 245 252 251 242 228 219 217 218 221 226 229 231 237 241 244 249 248 239 233 230 228 225 221 221 226 233
217 225 230 229 222 218 218 218 220 224 227 229 231 234 238 243 248 252 252 243 232 224 222 221 220 222 224 225 230 238 244 246 239 228 226 226 221 216 216 223 231 240
215 219 222 220 214 211 214 217 220 227 233 236 240 246 251 255 254 250 247 239 231 226 225 224 221 219 221 224 227 230 230 228 222 214 212 209 205 208 218 226 235 247
207 211 212 213 213 214 219 222 226 237 245 246 249 254 259 262 258 252 246 238 231 231 236 236 227 224 232 236 233 228 222 220 218 211 206 206 207 214 225 231 241 253
197 200 203 210 218 224 232 233 230 238 247 251 254 257 257 256 254 249 246 242 240 245 254 252 238 238 251 251 242 235 228 222 219 213 208 208 209 213 223 232 239 244
180 183 185 197 210 218 229 233 229 235 245 250 252 255 256 257 255 248 245 248 251 253 256 252 241 241 249 249 244 240 231 220 216 214 209 206 205 206 214 224 224 221
154 159 163 170 179 185 188 194 204 217 238 250 256 264 268 264 252 243 245 250 252 251 249 245 240 238 239 240 237 234 227 215 210 212 210 206 202 200 201 204 203 198
120 118 122 126 135 139 124 111 120 139 151 156 178 278 274 261 230 225 230 234 234 230 225 227 230 226 224 225 222 219 216 209 205 206 205 201 197 194 191 187 187 191
Height
852 853 853 854 855 856 856 857 858 858 859 859 860 860 861 862 862 863 863 863 863 864 864 864 864 864 864 864 864 864 864 864 865 865 865 865 865 865 865 865 865 865
851 852 853 853 854 855 856 856 857 858 858 859 859 860 861 861 862 862 862 863 863 863 863 864 864 864 864 864 864 864 864 864 864 865 865 865 865 865 864 864 864 864
850 851 852 852 853 854 855 856 856 857 858 858 859 860 860 861 861 862 862 862 862 863 863 863 863 863 863 863 864 864 864 864 864 864 865 865 864 864 864 864 864 864
848 849 850 851 852 853 854 855 856 856 857 858 858 859 859 860 860 861 861 861 861 862 862 862 863 863 863 863 863 863 863 864 864 864 864 864 864 864 863 864 863 863
847 848 849 850 851 852 853 853 854 855 856 857 857 858 859 859 860 860 860 860 860 861 861 862 862 862 862 862 863 863 863 863 863 863 863 863 863 863 863 863 863 863
846 847 848 849 850 851 852 852 853 854 855 856 856 857 858 858 858 859 859 859 860 860 860 861 861 861 862 862 862 862 862 862 863 863 863 862 863 863 862 863 863 862
844 845 846 848 849 850 850 851 852 853 853 855 855 856 856 857 857 857 858 858 859 859 860 860 860 861 861 861 861 861 861 862 862 862 862 862 862 862 862 862 862 862
843 844 845 847 847 848 849 850 851 851 852 853 854 854 855 855 856 856 857 857 858 858 859 859 860 860 860 860 860 861 861 861 861 861 861 861 861 861 861 861 861 861
841 843 844 846 846 847 848 849 850 850 851 852 852 853 853 854 855 855 856 856 857 857 858 858 859 859 859 859 859 860 860 860 860 860 861 861 860 860 860 860 860 860
840 841 843 844 845 846 847 848 849 849 850 851 851 852 852 852 853 854 854 855 855 856 856 857 857 858 858 858 858 859 859 859 859 859 860 860 860 860 860 859 859 859
838 840 842 843 844 845 846 847 848 849 849 850 850 850 851 851 851 852 853 853 854 854 855 855 856 856 857 857 857 858 858 858 858 858 858 858 859 859 858 858 858 858
837 839 840 842 843 844 845 846 847 848 848 849 849 849 849 849 850 851 851 851 852 852 853 853 854 854 855 855 856 856 856 857 857 857 857 857 858 858 857 857 857 857
836 838 839 841 842 843 844 845 845 846 846 847 847 847 848 848 848 849 849 850 850 851 851 852 852 853 853 854 854 855 855 855 855 856 856 856 857 856 856 857 856 856
835 837 838 839 841 841 843 843 844 845 845 845 846 846 846 847 847 847 848 848 849 849 849 850 850 851 852 852 852 853 853 853 854 854 854 855 855 855 855 855 855 855
834 835 837 838 839 840 841 842 843 843 844 844 844 844 845 845 845 846 846 846 847 848 848 848 849 850 850 851 851 851 851 852 852 853 853 853 854 854 854 854 853 853
833 835 836 837 838 839 840 840 841 842 842 842 843 843 844 844 844 844 844 844 845 846 847 847 848 849 849 849 850 850 850 850 850 851 852 852 852 852 853 852 852 852
834 835 835 836 837 838 838 839 840 840 840 841 841 842 843 843 844 844 843 843 844 844 845 846 846 847 848 848 848 849 849 849 849 849 850 850 850 850 851 851 851 851
834 834 835 836 836 837 837 838 838 839 839 839 840 840 842 842 843 843 843 843 843 843 843 844 845 846 846 846 847 847 847 847 847 848 848 848 848 848 849 849 849 850
833 834 835 836 836 836 837 837 837 838 838 839 839 840 840 841 841 842 842 843 843 843 843 843 843 844 844 844 845 845 845 845 845 846 846 847 847 847 847 847 847 848
832 833 834 834 835 835 835 836 836 837 837 838 838 839 840 840 841 841 841 842 842 842 842 842 842 842 842 843 843 843 843 843 843 844 844 845 846 846 846 845 845 846
830 831 832 833 833 833 834 834 835 835 836 836 837 838 839 840 840 840 840 840 840 841 841 841 841 841 841 841 842 842 842 842 842 842 843 843 844 845 845 845 845 845
830 831 831 831 832 832 833 833 834 835 836 835 836 837 837 838 839 839 839 839 839 840 840 840 841 841 841 841 841 841 841 841 841 841 841 842 842 843 843 844 844 844
831 831 830 831 831 832 832 833 833 835 835 834 834 835 835 836 837 838 838 839 839 838 838 839 839 839 839 840 840 840 840 840 840 839 839 840 840 840 841 842 842 842
831 830 830 830 831 831 832 832 832 833 832 832 832 832 832 834 835 836 837 837 837 836 836 836 836 836 837 837 838 838 839 838 838 838 838 838 838 838 839 839 840 841
831 831 830 831 831 831 832 832 831 831 831 831 831 831 831 832 833 834 835 834 834 834 834 835 835 834 835 835 835 835 836 835 836 837 837 837 837 837 837 837 839 840
832 832 831 831 831 832 832 832 832 831 831 831 831 831 830 830 831 832 833 832 832 833 833 834 834 833 833 833 832 832 832 832 833 833 833 834 834 835 835 835 837 839